GW6935 Weather Reports


Display with metric or nautical units.
time (UTC)temp
F
wind
direction
speed
MPH
gust
MPH
rain 1hr
in
rain 24hr
in
rain mn
in
humidity
%
barometer
mb
20260508225438 70 202 2.0 3.0 0.00 0.00 0.00 35 1046.7
20260508224935 71 207 1.0 2.0 0.00 0.00 0.00 35 1046.3
20260508224433 71 250 1.0 1.0 0.00 0.00 0.00 38 1046.6
20260508223930 71 244 1.0 1.0 0.00 0.00 0.00 37 1046.3
20260508223428 71 227 1.0 1.0 0.00 0.00 0.00 38 1046.6
20260508222925 71 209 1.0 2.0 0.00 0.00 0.00 37 1046.6
20260508222423 71 204 2.0 2.0 0.00 0.00 0.00 33 1046.6
20260508221919 72 207 3.0 3.0 0.00 0.00 0.00 33 1046.3
20260508221414 72 207 1.0 2.0 0.00 0.00 0.00 33 1046.4
20260508220911 73 286 0.0 2.0 0.00 0.00 0.00 37 1046.4
20260508220407 72 230 1.0 2.0 0.00 0.00 0.00 37 1046.3
20260508215904 72 220 1.0 3.0 0.00 0.00 0.00 37 1046.3
20260508215401 72 204 2.0 3.0 0.00 0.00 0.00 31 1046.4
20260508214857 72 217 2.0 2.0 0.00 0.00 0.00 36 1046.3
20260508214355 72 268 1.0 1.0 0.00 0.00 0.00 34 1046.4
20260508213851 73 209 2.0 2.0 0.00 0.00 0.00 30 1046.4
20260508213348 73 210 1.0 2.0 0.00 0.00 0.00 32 1046.3
20260508212844 73 246 1.0 2.0 0.00 0.00 0.00 36 1046.3
20260508212341 73 215 3.0 3.0 0.00 0.00 0.00 32 1046.2
20260508211836 73 215 3.0 3.0 0.00 0.00 0.00 32 1046.3
20260508211332 74 223 3.0 4.0 0.00 0.00 0.00 36 1046.7
20260508210830 0 0.0 0.0 0.00 0.00 0.00 1046.6
20260508210327 74 211 3.0 3.0 0.00 0.00 0.00 33 1046.7
20260508205824 74 211 3.0 3.0 0.00 0.00 0.00 33 1046.9
20260508205320 73 240 1.0 1.0 0.00 0.00 0.00 37 1046.8
20260508204816 73 235 2.0 2.0 0.00 0.00 0.00 34 1047.0
20260508204313 73 231 2.0 2.0 0.00 0.00 0.00 37 1047.1
20260508203809 74 228 1.0 1.0 0.00 0.00 0.00 36 1047.1
20260508203306 74 245 2.0 3.0 0.00 0.00 0.00 40 1047.1
20260508202801 74 203 4.0 4.0 0.00 0.00 0.00 35 1047.3
20260508202259 73 272 2.0 2.0 0.00 0.00 0.00 38 1047.4
20260508201756 72 200 1.0 1.0 0.00 0.00 0.00 40 1047.8
20260508201253 73 202 3.0 4.0 0.00 0.00 0.00 31 1048.1
20260508200749 73 270 1.0 1.0 0.00 0.00 0.00 37 1047.8
20260508200245 71 266 2.0 2.0 0.00 0.00 0.00 42 1048.0
20260508195742 71 206 2.0 3.0 0.00 0.00 0.00 33 1047.9
20260508195239 71 207 4.0 6.0 0.00 0.00 0.00 36 1047.9
20260508194735 71 200 3.0 3.0 0.00 0.00 0.00 33 1047.9
20260508194232 71 205 3.0 3.0 0.00 0.00 0.00 32 1047.8
20260508193729 71 221 3.0 3.0 0.00 0.00 0.00 36 1048.0
20260508193225 71 193 3.0 3.0 0.00 0.00 0.00 35 1047.7
20260508192722 72 194 4.0 4.0 0.00 0.00 0.00 32 1047.5
20260508192219 72 222 2.0 2.0 0.00 0.00 0.00 44 1047.9
20260508191717 71 203 2.0 3.0 0.00 0.00 0.00 37 1048.0
20260508191213 72 196 3.0 3.0 0.00 0.00 0.00 38 1048.1
20260508190710 71 212 2.0 3.0 0.00 0.00 0.00 36 1048.1
20260508190207 70 211 3.0 3.0 0.00 0.00 0.00 39 1048.2
20260508185704 71 214 3.0 3.0 0.00 0.00 0.00 37 1048.2
20260508185201 69 197 2.0 3.0 0.00 0.00 0.00 37 1048.4
20260508184658 70 202 6.0 7.0 0.00 0.00 0.00 40 1048.1
20260508184155 70 179 5.0 6.0 0.00 0.00 0.00 37 1048.3
20260508183652 70 241 2.0 2.0 0.00 0.00 0.00 42 1048.6
20260508183148 70 207 4.0 4.0 0.00 0.00 0.00 39 1048.7
20260508182644 70 236 1.0 3.0 0.00 0.00 0.00 36 1048.7
20260508182141 69 231 3.0 6.0 0.00 0.00 0.00 44 1048.8
20260508181636 71 210 2.0 2.0 0.00 0.00 0.00 43 1048.9
20260508181134 71 210 2.0 2.0 0.00 0.00 0.00 43 1049.1
20260508180630 70 280 1.0 1.0 0.00 0.00 0.00 40 1049.1
20260508180127 70 201 3.0 3.0 0.00 0.00 0.00 37 1049.4
20260508175624 71 199 7.0 9.0 0.00 0.00 0.00 40 1049.2
20260508175121 71 205 2.0 3.0 0.00 0.00 0.00 36 1049.5
20260508174618 71 210 3.0 4.0 0.00 0.00 0.00 36 1049.6
20260508174115 70 230 0.0 1.0 0.00 0.00 0.00 43 1049.8
20260508173612 69 210 4.0 6.0 0.00 0.00 0.00 43 1049.6
20260508173108 69 190 2.0 3.0 0.00 0.00 0.00 40 1049.6
20260508172605 69 234 2.0 2.0 0.00 0.00 0.00 39 1049.9
20260508172102 69 201 3.0 3.0 0.00 0.00 0.00 39 1050.2
20260508171558 69 201 2.0 2.0 0.00 0.00 0.00 44 1050.1
20260508171055 69 205 3.0 4.0 0.00 0.00 0.00 45 1050.1
20260508170552 70 191 3.0 3.0 0.00 0.00 0.00 40 1050.3
20260508170049 70 256 2.0 2.0 0.00 0.00 0.00 41 1050.3
20260508165546 69 255 0.0 2.0 0.00 0.00 0.00 45 1050.6
20260508165043 70 185 4.0 4.0 0.00 0.00 0.00 41 1050.8
20260508164540 70 252 3.0 4.0 0.00 0.00 0.00 42 1050.9
20260508164037 70 221 2.0 3.0 0.00 0.00 0.00 44 1051.0
20260508163534 69 275 0.0 1.0 0.00 0.00 0.00 46 1051.0
20260508163030 69 273 2.0 3.0 0.00 0.00 0.00 46 1051.2
20260508162527 69 203 3.0 3.0 0.00 0.00 0.00 40 1051.2
20260508162025 69 257 1.0 3.0 0.00 0.00 0.00 50 1051.4
20260508161521 67 282 1.0 2.0 0.00 0.00 0.00 51 1051.4
20260508161018 68 193 2.0 2.0 0.00 0.00 0.00 42 1051.6
20260508160517 68 216 3.0 3.0 0.00 0.00 0.00 44 1051.5
20260508160014 68 240 1.0 2.0 0.00 0.00 0.00 38 1051.6
20260508155511 68 243 0.0 1.0 0.00 0.00 0.00 48 1051.4
20260508155008 66 211 2.0 2.0 0.00 0.00 0.00 46 1051.6
20260508154505 66 199 2.0 3.0 0.00 0.00 0.00 43 1051.6
20260508154001 66 220 2.0 2.0 0.00 0.00 0.00 44 1051.6
20260508153458 65 217 2.0 3.0 0.00 0.00 0.00 42 1051.7
20260508152955 66 241 2.0 3.0 0.00 0.00 0.00 46 1051.9
20260508152452 66 210 2.0 3.0 0.00 0.00 0.00 42 1051.8
20260508151948 66 218 2.0 2.0 0.00 0.00 0.00 46 1052.0
20260508151444 65 250 2.0 2.0 0.00 0.00 0.00 50 1052.1
20260508150941 65 241 0.0 2.0 0.00 0.00 0.00 44 1052.2
20260508150438 65 220 2.0 3.0 0.00 0.00 0.00 47 1052.1
20260508145933 65 190 3.0 3.0 0.00 0.00 0.00 43 1052.2
20260508145430 65 269 2.0 4.0 0.00 0.00 0.00 51 1052.4
20260508144927 65 227 0.0 1.0 0.00 0.00 0.00 43 1052.1
20260508144425 65 240 1.0 1.0 0.00 0.00 0.00 47 1052.2
20260508143922 64 237 1.0 1.0 0.00 0.00 0.00 53 1052.2
20260508143420 63 244 1.0 2.0 0.00 0.00 0.00 57 1052.3
20260508142916 63 242 2.0 3.0 0.00 0.00 0.00 50 1052.1
20260508142413 62 221 2.0 2.0 0.00 0.00 0.00 48 1052.1
20260508141909 62 264 2.0 2.0 0.00 0.00 0.00 54 1052.0
20260508141406 62 261 1.0 1.0 0.00 0.00 0.00 59 1052.1
20260508140904 60 314 1.0 2.0 0.00 0.00 0.00 56 1052.2
20260508140401 59 222 0.0 1.0 0.00 0.00 0.00 53 1052.2
20260508135856 59 227 2.0 1.0 0.00 0.00 0.00 53 1052.1
20260508135353 58 202 0.0 0.0 0.00 0.00 0.00 60 1052.4
20260508134849 57 204 1.0 2.0 0.00 0.00 0.00 54 1052.4
20260508134346 57 204 1.0 1.0 0.00 0.00 0.00 56 1052.4
20260508133842 57 201 1.0 2.0 0.00 0.00 0.00 56 1052.4
20260508133341 56 82 1.0 1.0 0.00 0.00 0.00 58 1052.3
20260508132837 55 220 0.0 1.0 0.00 0.00 0.00 56 1052.1
20260508132335 55 222 2.0 2.0 0.00 0.00 0.00 55 1052.5
20260508131831 55 237 0.0 2.0 0.00 0.00 0.00 58 1052.2
20260508131327 55 237 1.0 1.0 0.00 0.00 0.00 62 1052.1
20260508130824 54 237 1.0 1.0 0.00 0.00 0.00 61 1052.3
20260508130321 53 237 0.0 1.0 0.00 0.00 0.00 60 1052.1
20260508125817 53 237 0.0 0.0 0.00 0.00 0.00 59 1052.0
20260508125313 53 237 0.0 1.0 0.00 0.00 0.00 62 1052.2
20260508124811 52 237 0.0 0.0 0.00 0.00 0.00 62 1052.1
20260508124308 52 237 0.0 0.0 0.00 0.00 0.00 61 1052.2
20260508123806 51 237 0.0 0.0 0.00 0.00 0.00 65 1052.2
20260508123304 51 237 0.0 0.0 0.00 0.00 0.00 64 1052.2
20260508122800 50 237 0.0 0.0 0.00 0.00 0.00 65 1052.2
20260508122257 49 237 0.0 0.0 0.00 0.00 0.00 66 1052.1
20260508121755 49 237 0.0 0.0 0.00 0.00 0.00 68 1052.3
20260508121253 49 237 0.0 0.0 0.00 0.00 0.00 70 1051.9
20260508120750 48 237 0.0 0.0 0.00 0.00 0.00 72 1052.1
20260508120248 47 237 0.0 0.0 0.00 0.00 0.00 71 1052.1
20260508115745 47 237 0.0 0.0 0.00 0.00 0.00 73 1052.1
20260508115243 46 237 0.0 0.0 0.00 0.00 0.00 72 1052.0
20260508114739 46 237 0.0 0.0 0.00 0.00 0.00 74 1051.8
20260508114236 45 237 0.0 0.0 0.00 0.00 0.00 76 1051.8
20260508113732 45 237 0.0 0.0 0.00 0.00 0.00 75 1051.8
20260508113231 44 237 0.0 0.0 0.00 0.00 0.00 75 1051.5
20260508112727 44 237 0.0 0.0 0.00 0.00 0.00 75 1051.7
20260508112224 43 237 0.0 0.0 0.00 0.00 0.00 77 1051.6
20260508111720 41 237 0.0 0.0 0.00 0.00 0.00 83 1051.6
20260508111218 41 237 0.0 0.0 0.00 0.00 0.00 87 1051.5
20260508110715 40 237 0.0 0.0 0.00 0.00 0.00 88 1051.6
20260508110212 40 237 0.0 0.0 0.00 0.00 0.00 86 1051.6
20260508105712 40 237 0.0 0.0 0.00 0.00 0.00 85 1051.6
20260508105209 40 237 0.0 0.0 0.00 0.00 0.00 84 1051.7
20260508104706 40 237 0.0 0.0 0.00 0.00 0.00 85 1051.4
20260508104203 40 237 0.0 0.0 0.00 0.00 0.00 86 1051.7
20260508103700 40 237 0.0 0.0 0.00 0.00 0.00 85 1051.5
20260508103157 40 237 0.0 0.0 0.00 0.00 0.00 84 1051.5
20260508102654 41 237 0.0 0.0 0.00 0.00 0.00 84 1051.3
20260508102153 41 237 0.0 0.0 0.00 0.00 0.00 84 1051.3
20260508101649 40 237 0.0 0.0 0.00 0.00 0.00 83 1051.3
20260508101147 40 237 0.0 0.0 0.00 0.00 0.00 82 1051.1
20260508100644 41 237 0.0 0.0 0.00 0.00 0.00 81 1051.2
20260508100142 41 237 0.0 0.0 0.00 0.00 0.00 81 1051.2
20260508095639 41 237 0.0 0.0 0.00 0.00 0.00 83 1051.2
20260508095136 40 237 0.0 0.0 0.00 0.00 0.00 83 1051.4
20260508094632 40 237 0.0 0.0 0.00 0.00 0.00 83 1051.3
20260508094129 40 237 0.0 0.0 0.00 0.00 0.00 84 1051.2
20260508093627 41 237 0.0 0.0 0.00 0.00 0.00 84 1051.3
20260508093124 41 237 0.0 0.0 0.00 0.00 0.00 82 1051.3
20260508092621 41 237 0.0 0.0 0.00 0.00 0.00 80 1051.4
20260508092120 42 237 0.0 0.0 0.00 0.00 0.00 79 1051.2
20260508091616 42 237 0.0 0.0 0.00 0.00 0.00 78 1051.1
20260508091113 42 237 0.0 0.0 0.00 0.00 0.00 77 1051.1
20260508090612 42 237 0.0 0.0 0.00 0.00 0.00 78 1051.4
20260508090108 42 237 0.0 0.0 0.00 0.00 0.00 78 1051.2
20260508085604 42 237 0.0 0.0 0.00 0.00 0.00 77 1051.2
20260508085102 42 238 0.0 0.0 0.00 0.00 0.00 77 1051.2
20260508084558 42 258 0.0 0.0 0.00 0.00 0.00 76 1051.3
20260508084056 43 258 0.0 0.0 0.00 0.00 0.00 76 1051.2
20260508083553 42 258 0.0 0.0 0.00 0.00 0.00 77 1051.3
20260508083050 41 259 0.0 0.0 0.00 0.00 0.00 81 1051.2
20260508082545 41 259 0.0 0.0 0.00 0.00 0.00 81 1051.1
20260508082043 42 259 0.0 0.0 0.00 0.00 0.00 80 1051.1
20260508081540 42 259 0.0 0.0 0.00 0.00 0.00 80 1051.3
20260508081036 42 259 0.0 0.0 0.00 0.00 0.00 81 1051.3
20260508080534 40 259 0.0 0.0 0.00 0.00 0.00 88 1051.2
20260508080031 39 259 0.0 0.0 0.00 0.00 0.00 89 1051.4
20260508075528 39 259 0.0 0.0 0.00 0.00 0.00 88 1051.3
20260508075025 40 259 0.0 0.0 0.00 0.00 0.00 86 1051.3
20260508074523 41 259 0.0 0.0 0.00 0.00 0.00 84 1051.1
20260508074020 40 259 0.0 0.0 0.00 0.00 0.00 85 1051.2
20260508073517 40 259 0.0 0.0 0.00 0.00 0.00 84 1051.3
20260508073015 41 259 0.0 0.0 0.00 0.00 0.00 83 1051.0
20260508072510 41 259 0.0 0.0 0.00 0.00 0.00 85 1051.2
20260508072008 40 259 0.0 0.0 0.00 0.00 0.00 86 1051.2
20260508071505 40 259 0.0 0.0 0.00 0.00 0.00 85 1051.3
20260508071003 41 259 0.0 0.0 0.00 0.00 0.00 86 1051.1
20260508070500 41 259 0.0 0.0 0.00 0.00 0.00 85 1051.1
20260508065958 41 259 0.0 0.0 0.00 0.00 0.00 87 1051.4
20260508065456 41 259 0.0 0.0 0.00 0.00 0.00 87 1051.4
20260508064954 40 259 0.0 0.0 0.00 0.00 0.00 87 1051.3
20260508064451 40 259 0.0 0.0 0.00 0.00 0.00 85 1051.5
20260508063949 40 259 0.0 0.0 0.00 0.00 0.00 84 1051.6
20260508063446 40 259 0.0 0.0 0.00 0.00 0.00 85 1051.5
20260508062943 40 259 0.0 0.0 0.00 0.00 0.00 86 1051.6
20260508062441 40 259 0.0 0.0 0.00 0.00 0.00 87 1051.6
20260508061938 40 259 0.0 0.0 0.00 0.00 0.00 89 1051.6
20260508061436 40 259 0.0 0.0 0.00 0.00 0.00 88 1051.5
20260508060931 40 259 0.0 0.0 0.00 0.00 0.00 86 1051.6
20260508060429 41 259 0.0 0.0 0.00 0.00 0.00 85 1051.7
20260508055925 41 258 0.0 0.0 0.00 0.00 0.00 84 1051.9
20260508055422 41 258 0.0 0.0 0.00 0.00 0.00 84 1051.7
20260508054918 41 258 0.0 0.0 0.00 0.00 0.00 84 1051.8
20260508054416 42 258 0.0 0.0 0.00 0.00 0.00 83 1051.8
20260508053912 41 258 0.0 0.0 0.00 0.00 0.00 85 1051.6
20260508053409 41 258 0.0 0.0 0.00 0.00 0.00 85 1051.8
20260508052907 41 258 0.0 0.0 0.00 0.00 0.00 84 1052.0
20260508052405 42 258 0.0 0.0 0.00 0.00 0.00 81 1051.9
20260508051900 42 258 0.0 0.0 0.00 0.00 0.00 80 1051.8
20260508051356 42 258 0.0 0.0 0.00 0.00 0.00 80 1051.8
20260508050852 42 258 0.0 0.0 0.00 0.00 0.00 80 1051.6
20260508050350 42 258 0.0 0.0 0.00 0.00 0.00 78 1051.7
20260508045845 42 258 0.0 0.0 0.00 0.00 0.00 81 1051.9
20260508045344 42 258 0.0 0.0 0.00 0.00 0.00 82 1051.7
20260508044841 43 258 0.0 0.0 0.00 0.00 0.00 81 1051.7
20260508044337 44 258 0.0 0.0 0.00 0.00 0.00 80 1051.7
20260508043833 44 258 0.0 0.0 0.00 0.00 0.00 79 1051.5
20260508043331 43 258 0.0 0.0 0.00 0.00 0.00 77 1051.6
20260508042827 43 258 0.0 0.0 0.00 0.00 0.00 80 1051.6
20260508042325 43 258 0.0 0.0 0.00 0.00 0.00 82 1051.6
20260508041821 43 258 0.0 0.0 0.00 0.00 0.00 83 1051.7
20260508041318 43 258 0.0 0.0 0.00 0.00 0.00 82 1051.8
20260508040814 43 258 0.0 0.0 0.00 0.00 0.00 81 1051.7
20260508040312 43 258 0.0 0.0 0.00 0.00 0.00 81 1051.6
20260508035809 44 258 0.0 0.0 0.00 0.00 0.00 80 1051.6
20260508035307 44 258 0.0 0.0 0.00 0.00 0.00 78 1051.6
20260508034803 44 258 0.0 0.0 0.00 0.00 0.00 73 1051.7
20260508034300 45 258 0.0 0.0 0.00 0.00 0.00 73 1051.7
20260508033757 45 258 0.0 0.0 0.00 0.00 0.00 72 1051.9
20260508033255 45 258 0.0 0.0 0.00 0.00 0.00 71 1052.0
20260508032753 45 258 0.0 0.0 0.00 0.00 0.00 73 1051.8
20260508032249 45 258 0.0 0.0 0.00 0.00 0.00 72 1051.8
20260508031746 44 258 0.0 0.0 0.00 0.00 0.00 76 1051.7
20260508031243 44 258 0.0 0.0 0.00 0.00 0.00 76 1051.9
20260508030739 45 258 0.0 0.0 0.00 0.00 0.00 72 1052.0
20260508030237 45 258 0.0 0.0 0.00 0.00 0.00 74 1051.9
20260508025733 45 258 0.0 0.0 0.00 0.00 0.00 75 1051.9
20260508025230 46 258 0.0 0.0 0.00 0.00 0.00 73 1051.8
20260508024726 46 258 0.0 0.0 0.00 0.00 0.00 71 1051.7
20260508024223 47 258 0.0 0.0 0.00 0.00 0.00 70 1051.7
20260508023720 48 258 0.0 0.0 0.00 0.00 0.00 66 1051.7
20260508023218 49 258 0.0 0.0 0.00 0.00 0.00 63 1051.9
20260508022713 49 258 0.0 0.0 0.00 0.00 0.00 58 1051.5
20260508022210 48 259 0.0 0.0 0.00 0.00 0.00 61 1051.5
20260508021707 49 259 0.0 0.0 0.00 0.00 0.00 64 1051.5
20260508021202 50 259 0.0 0.0 0.00 0.00 0.00 61 1051.3
20260508020700 50 259 0.0 0.0 0.00 0.00 0.00 59 1051.4
20260508020157 51 259 0.0 0.0 0.00 0.00 0.00 58 1051.4
20260508015654 51 259 0.0 0.0 0.00 0.00 0.00 55 1051.3
20260508015151 51 259 0.0 0.0 0.00 0.00 0.00 54 1051.3
20260508014647 51 259 0.0 0.0 0.00 0.00 0.00 54 1051.2
20260508014143 51 259 0.0 0.0 0.00 0.00 0.00 54 1051.2
20260508013640 51 259 0.0 0.0 0.00 0.00 0.00 53 1051.0
20260508013137 51 259 0.0 0.0 0.00 0.00 0.00 54 1050.8
20260508012635 51 259 0.0 0.0 0.00 0.00 0.00 51 1051.0
20260508012131 51 259 0.0 0.0 0.00 0.00 0.00 53 1051.1
20260508011630 52 259 0.0 0.0 0.00 0.00 0.00 53 1050.8
20260508011127 53 259 0.0 0.0 0.00 0.00 0.00 52 1050.8
20260508010623 53 259 0.0 0.0 0.00 0.00 0.00 54 1051.0
20260508010122 54 259 0.0 0.0 0.00 0.00 0.00 52 1050.6
20260508005618 54 260 0.0 0.0 0.00 0.00 0.00 50 1050.6
20260508005114 54 260 0.0 0.0 0.00 0.00 0.00 50 1050.6
20260508004610 54 260 1.0 1.0 0.00 0.00 0.00 47 1050.6
20260508004107 55 260 0.0 0.0 0.00 0.00 0.00 50 1050.3
20260508003603 55 260 0.0 0.0 0.00 0.00 0.00 49 1050.5
20260508003101 55 260 0.0 0.0 0.00 0.00 0.00 52 1050.3
20260508002557 55 259 0.0 0.0 0.00 0.00 0.00 50 1050.2
20260508002055 56 259 0.0 0.0 0.00 0.00 0.00 50 1050.3
20260508001550 56 277 0.0 1.0 0.00 0.00 0.00 49 1050.2
20260508001047 56 277 1.0 1.0 0.00 0.00 0.00 46 1050.0
20260508000543 57 283 0.0 0.0 0.00 0.00 0.00 45 1050.2
20260508000040 57 283 0.0 0.0 0.00 0.00 0.00 46 1050.3
20260507235537 58 289 1.0 1.0 0.00 0.00 0.00 43 1050.0
20260507235034 58 285 1.0 1.0 0.00 0.00 0.00 43 1050.0
20260507234530 58 285 1.0 1.0 0.00 0.00 0.00 41 1050.0
20260507234027 58 320 0.0 3.0 0.00 0.00 0.00 41 1050.1
20260507233524 59 322 1.0 1.0 0.00 0.00 0.00 44 1049.9
20260507233023 59 290 1.0 2.0 0.00 0.00 0.00 40 1049.8
20260507232518 60 287 2.0 2.0 0.00 0.00 0.00 40 1050.0
20260507232016 61 284 2.0 2.0 0.00 0.00 0.00 38 1050.0
20260507231512 61 303 1.0 3.0 0.00 0.00 0.00 37 1050.1
20260507231010 62 282 3.0 4.0 0.00 0.00 0.00 38 1050.1
20260507230506 63 278 1.0 4.0 0.00 0.00 0.00 36 1050.1
20260507230002 62 288 1.0 3.0 0.00 0.00 0.00 38 1050.1